Retour au catalogue

ONEWEB-0178

ActifCommunicationsPO
NORAD 48075·PAYLOAD·🇬🇧 United Kingdom

Lancé Mar 25, 2021 depuis Vostochny Cosmodrome

Loading…

Prochains Passages (prochaines 24 heures)

TLE

FraisSource: CelesTrak SupGP

Époque: Sep 14, 2026, 15:30 UTC

1 48075C 21025AK  26257.64634676 -.00000829  00000+0 -22723-2 0  2573
2 48075  87.8918 302.4344 0001759  90.0035   9.6952 13.13473848    10

Suivez ONEWEB-0178 en temps réel avec AllMySat

Download on the App Store